EDHIEGGD

Guest
Details From EDHI - Hamburg Finkenwerder
To EGGD - Bristol Lulsgate
Flight Number -
Tags Generated
Created
Modified
Stats Distance 477 nm / 883 km
Max Altitude 0 ft / 0 m
Waypoints 4
Social Downloads 1
Likes 0
Share VATSIM

Download

Looking for another format? Having issues loading an existing format? Contact us
Advertisement - Login to hide

Notes

Generated

Route

EDHI NAVPI BRI EGGD

ID Type Via Altitude Latitude Longitude Leg Dist Tot Dist Heading (true) Name
O EDHI APT - 0 ft / 0 m 53.52856˚ 9.82149˚ - 0 nm - -
NAVPI FIX - 0 ft / 0 m 52.54722˚ 2.84056˚ 258 nm 258 nm 260° / 254° -
BRI NDB - 0 ft / 0 m 51.38144˚ -2.71754˚ 217 nm 475 nm 253° / 249° BRISTOL NDB
O EGGD APT - 0 ft / 0 m 51.38211˚ -2.73350˚ 0 nm 476 nm 274° / 274° -

Altitude Profile

Advertisement - Login to hide

Weather


0- 5 10 15 20 25 30 35+ Temperature / ° C

Clouds and Precipitation
Forecast for 2018-05-25 12:00 UTC. Updated a few seconds ago

Ground ~20,000 ft ~40,000 ft Winds

EDHI

Details ICAO EDHI (XFW)
Name Hamburg Finkenwerder
Region Germany - Civil
Timezone Europe/Berlin (UTC+2.0)
Stats Elevation 21 ft / 6 m (AMSL)
Location 53.535910° 9.837071°
Runways 1
Magnetic Variation 2.800° E

METAR

EDHI 251050Z 09010KT 050V180 CAVOK 26/10 Q1021

Decode

TAF

Not found

Departure Runways

ID Width Length Bearing (true) Bearing (mag) Surface Threshold Offset Overrun Length
05 148 ft / 45 m 8,628 ft / 2,630 m 51.57° 48.77° Asphalt 341 ft / 104 m 341 ft / 104 m
23 148 ft / 45 m 8,628 ft / 2,630 m 231.59° 228.79° Asphalt 2,474 ft / 754 m 328 ft / 100 m

EGGD

Details ICAO EGGD (BRS)
Name Bristol International
Region United Kingdom
Timezone Europe/London (UTC+1.0)
Stats Elevation 622 ft / 190 m (AMSL)
Location 51.382658° -2.718918°
Runways 1
Magnetic Variation 1.284° W

METAR

EGGD 251120Z AUTO 35005KT 320V020 6000 -RA BKN002 OVC005 13/13 Q1018

Decode

TAF

TAF AMD EGGD 250931Z 2509/2606 02008KT 6000 BKN004 BECMG 2509/2512 9999 SCT015 PROB30 2512/2515 8000 SHRA BKN009 BECMG 2600/2603 2000 BR BKN002 PROB40 2603/2606 0200 FG BKN001

Decode

Destination Runways

ID Width Length Bearing (true) Bearing (mag) Surface Threshold Offset Overrun Length
09 148 ft / 45 m 6,655 ft / 2,029 m 86.42° 87.70° Asphalt 0 ft / 0 m 0 ft / 0 m
27 148 ft / 45 m 6,655 ft / 2,029 m 266.44° 267.72° Asphalt 499 ft / 152 m 0 ft / 0 m

Approach Navaids

Runway Type Ident Frequency Range Bearing (true) Bearing (mag) Slope Elevation
09 Localiser IBON 110.15 MHz 18 nm / 33 km 86.40° 87.68° - 622 ft / 190 m (AMSL)
09 Glidescope IBON 110.15 MHz 10 nm / 19 km 86.43° 87.72° 3.00° 622 ft / 190 m (AMSL)
09 DME IBON 110.15 MHz 18 nm / 33 km - - - 632 ft / 193 m (AMSL)
27 Localiser IBTS 110.15 MHz 18 nm / 33 km 266.47° 267.76° - 622 ft / 190 m (AMSL)
27 Glidescope IBTS 110.15 MHz 10 nm / 19 km 266.43° 267.72° 3.00° 632 ft / 193 m (AMSL)
27 DME IBTS 110.15 MHz 18 nm / 33 km - - - 631 ft / 192 m (AMSL)